Погода в Волжском

Россия / Оренбургская область     52°31′35″N   51°37′58″E
темп.,
°C
ветер,
м/с
пор.,
м/с
влажн.,
%
обл.,
%
осадки,
мм/ч
давл.,
гПа
погр.,
м
27 июля, вт
вт2723:00+17зсз22495 0.0 102111
02:00+15сз22523 0.0 102011
05:00+14зсз22575 0.0 102011
08:00+18зсз245212 0.0 1020156
11:00+21зсз464711 0.0 1019446
14:00+25зсз5634100 0.0 10182439
17:00+23сз464194 0.0 1016452
20:00+23сз244265 0.0 1016127
28 июля, ср
ср2823:00+19з225091 0.0 101625
02:00+17сз34590 0.0 101548
05:00+15ссз35721 0.0 101586
08:00+18сз366381 0.0 1016215
11:00+23ссз56460 0.0 10151441
14:00+26ссз79295 0.0 10142613
17:00+26ссз79255 0.0 10132673
20:00+24с58302 0.0 1014333
29 июля, чт
чт2923:00+18с22380 0.0 101513
02:00+16в114262 0.0 101511
05:00+15ю114215 0.0 101411
08:00+19ю244199 0.0 1014137
11:00+25ююз453794 0.0 1013772
14:00+25юз4739100 0.0 1011617
17:00+19всв3376100 0.4 1011108
20:00+19вюв387684 0.3 1007188
30 июля, пт
пт3023:00+18зюз337574 1.3 100733
02:00+18юз488289 0.8 1006137
05:00+17з3889100 0.8 1006147
08:00+20зсз498598 0.0 1007324
11:00+25зсз695898 0.0 10081122
14:00+29зсз71040100 0.0 10082178
17:00+30зсз683653 0.0 10082298
20:00+25ссз245694 0.4 1008112
31 июля, сб
сб3123:00+20юз3584100 2.5 100993
02:00+19зсз238663 0.1 100948
05:00+18з22910 0.2 101023
08:00+21юз23770 0.0 1011183
11:00+26зюз22550 0.0 1011708
14:00+30зюз23395 0.0 10101822
17:00+31ююз2438100 0.1 10091824
20:00+29ююв114674 0.1 100815